Location: La Chapelle
(48.3135°N, 1.3085°W)
Time: 05:54:21
(UTC+00:00)

MetOp-A - Pass Details

Date: 03 March 2021
Orbit: 819 x 821 km, 98.5° (Epoch: 11 April)

Event Time Altitude Azimuth Distance (km) Brightness Sun altitude
Exits shadow 19:27:03 - 158° (SSE) 2,982 6.8 -16.5°
Reaches altitude 10° 19:28:29 10° 157° (SSE) 2,414 6.3 -16.7°
Maximum altitude 19:33:49 75° 73° (ENE) 855 4.0 -17.6°
Drops below altitude 10° 19:39:11 10° 349° (NNW) 2,431 6.9 -18.4°
Sets 19:41:33 0° 348° (NNW) 3,367 7.7 -18.8°
